Hourly Data Report for October 17, 2016

All times are specified in Local Standard Time (LST). Add 1 hour to adjust for Daylight Saving Time where and when it is observed.

HALL BEACH A
NUNAVUT

68°46'33.000" N
81°14'33.000" W
9.10 m
2402354
71293
YUX

Download Data

Hourly Data (October 2016)
Hourly Data Report for October 17, 2016
Temp Definition
°C
Dew Point Temp Definition
°C
Rel Hum Definition
%
Wind Dir Definition
10's deg

Wind Spd Definition
km/h
Visibility Definition
km
Stn Press Definition
kPa
Hmdx Definition


Wind Chill Definition


Weather Definition


TIME
00:00 Legend Double Dagger -7.9 -9.6 88 26 26 16.1 101.26   -16 Snow
01:00 Legend Double Dagger -8.1 -9.5 90 26 21 16.1 101.30   -16 Snow
02:00 Legend Double Dagger -7.1 -8.3 91 31 18 6.4 101.33   -14 Snow
03:00 Legend Double Dagger -8.4 -11.0 82 28 24 16.1 101.37   -17 LegendNANA
04:00 Legend Double Dagger -9.5 -11.7 84 27 21 16.1 101.40   -17 LegendNANA
05:00 Legend Double Dagger -10.3 -12.3 86 28 18 16.1 101.42   -18 LegendNANA
06:00 Legend Double Dagger -10.7 -13.1 83 28 21 16.1 101.45   -19 LegendNANA
07:00 Legend Double Dagger -11.8 -14.2 82 28 21 16.1 101.49   -20 LegendNANA
08:00 Legend Double Dagger -13.5 -15.7 84 27 17 16.1 101.52   -22 LegendNANA
09:00 Legend Double Dagger -11.5 -13.8 83 28 24 16.1 101.54   -21 LegendNANA
10:00 Legend Double Dagger -12.0 -13.9 86 27 18 16.1 101.57   -20 LegendNANA
11:00 Legend Double Dagger -11.4 -13.3 86 28 24 16.1 101.61   -20 LegendNANA
12:00 Legend Double Dagger -10.7 -12.9 84 27 18 16.1 101.65   -18 LegendNANA
13:00 Legend Double Dagger -9.8 -12.3 82 29 28 16.1 101.68   -19 LegendNANA
14:00 Legend Double Dagger -10.0 -12.7 81 28 21 16.1 101.77   -18 LegendNANA
15:00 Legend Double Dagger -10.0 -12.7 81 29 26 16.1 101.81   -19 LegendNANA
16:00 Legend Double Dagger -9.3 -11.7 83 29 30 16.1 101.85   -19 LegendNANA
17:00 Legend Double Dagger -10.5 -12.9 83 28 24 16.1 101.88   -19 LegendNANA
18:00 Legend Double Dagger -11.9 -13.8 86 28 22 16.1 101.92   -21 LegendNANA
19:00 Legend Double Dagger -9.3 -10.8 89 29 22 16.1 101.97   -17 LegendNANA
20:00 Legend Double Dagger -8.2 -10.4 84 30 24 16.1 102.02   -16 Snow
21:00 Legend Double Dagger -10.1 -12.2 85 29 21 16.1 102.05   -18 Snow
22:00 Legend Double Dagger -11.1 -12.7 88 29 24 16.1 102.08   -20 LegendNANA
23:00 Legend Double Dagger -11.0 -12.9 86 28 24 16.1 102.10   -20 LegendNANA

Notes on Data Quality.

Legend

  • E = Estimated
  • M = Missing
  • NA = Not Available
  • ‡ = Partner data that is not subject to review by the National Climate Archives
Date modified: